Hourly Weather Dziaduszyn

Today, 6 May, Thursday

Time Temperature Precipitation Wind Pressure Humidity
00:00 +3°C° 0.5 mm 5 mps 735 mmHg 95%
01:00 +4°C° 0.5 mm 4 mps 735 mmHg 94%
02:00 +2°C° 0 mm 5 mps 735 mmHg 93%
03:00 +2°C° 0 mm 5 mps 736 mmHg 92%
04:00 +2°C° 0 mm 6 mps 736 mmHg 92%
05:00 +2°C° 0 mm 6 mps 737 mmHg 90%
06:00 0°C° 0 mm 7 mps 737 mmHg 88%
07:00 0°C° 0 mm 7 mps 738 mmHg 85%
08:00 +1°C° 0.1 mm 8 mps 738 mmHg 86%
09:00 +1°C° 0.1 mm 9 mps 738 mmHg 87%
10:00 +1°C° 0.1 mm 9 mps 738 mmHg 88%
11:00 +2°C° 0.2 mm 9 mps 739 mmHg 82%
12:00 +5°C° 0.2 mm 9 mps 739 mmHg 76%
13:00 +6°C° 0.2 mm 9 mps 739 mmHg 70%
14:00 +7°C° 0.1 mm 9 mps 740 mmHg 66%
15:00 +7°C° 0.1 mm 8 mps 740 mmHg 63%
16:00 +9°C° 0.1 mm 7 mps 740 mmHg 59%
17:00 +8°C° 0.1 mm 7 mps 740 mmHg 62%
18:00 +7°C° 0.1 mm 6 mps 740 mmHg 66%
19:00 +5°C° 0.1 mm 5 mps 740 mmHg 69%
20:00 +5°C° 0 mm 5 mps 740 mmHg 72%
21:00 +5°C° 0 mm 5 mps 740 mmHg 76%
22:00 +5°C° 0 mm 5 mps 740 mmHg 79%
23:00 +5°C° 0.3 mm 5 mps 739 mmHg 83%

Tomorrow, 7 May, Friday

Time Temperature Precipitation Wind Pressure Humidity
00:00 +5°C° 0.3 mm 4 mps 739 mmHg 88%
01:00 +5°C° 0.3 mm 4 mps 738 mmHg 92%
02:00 +4°C° 1.6 mm 4 mps 738 mmHg 93%
03:00 +4°C° 1.6 mm 4 mps 738 mmHg 94%
04:00 +4°C° 1.6 mm 4 mps 738 mmHg 96%
05:00 +4°C° 0.1 mm 4 mps 739 mmHg 92%
06:00 +5°C° 0.1 mm 4 mps 739 mmHg 88%
07:00 +5°C° 0.1 mm 5 mps 740 mmHg 84%
08:00 +6°C° 0.1 mm 5 mps 740 mmHg 78%
09:00 +7°C° 0.1 mm 6 mps 740 mmHg 72%
10:00 +8°C° 0.1 mm 6 mps 741 mmHg 66%
11:00 +8°C° 0.3 mm 6 mps 741 mmHg 65%
12:00 +8°C° 0.3 mm 6 mps 741 mmHg 64%
13:00 +8°C° 0.3 mm 6 mps 742 mmHg 63%
14:00 +8°C° 0.3 mm 6 mps 742 mmHg 65%
15:00 +8°C° 0.3 mm 6 mps 743 mmHg 68%
16:00 +7°C° 0.3 mm 6 mps 744 mmHg 71%
17:00 +6°C° 0 mm 5 mps 744 mmHg 75%
18:00 +5°C° 0 mm 4 mps 745 mmHg 79%
19:00 +4°C° 0 mm 2 mps 745 mmHg 83%
20:00 +4°C° 0 mm 2 mps 745 mmHg 84%
21:00 +3°C° 0 mm 2 mps 746 mmHg 86%
22:00 +2°C° 0 mm 2 mps 746 mmHg 88%
23:00 +1°C° 0 mm 3 mps 746 mmHg 88%

Day after tomorrow, 8 May, Saturday

Time Temperature Precipitation Wind Pressure Humidity
00:00 +1°C° 0 mm 3 mps 746 mmHg 89%
01:00 +1°C° 0 mm 3 mps 746 mmHg 89%
02:00 +1°C° 0 mm 3 mps 746 mmHg 89%
03:00 +1°C° 0 mm 3 mps 746 mmHg 89%
04:00 +1°C° 0 mm 3 mps 746 mmHg 89%
05:00 +1°C° 0 mm 4 mps 746 mmHg 85%
06:00 +4°C° 0 mm 4 mps 747 mmHg 80%
07:00 +6°C° 0 mm 4 mps 747 mmHg 76%
08:00 +7°C° 0 mm 5 mps 746 mmHg 72%
09:00 +8°C° 0 mm 5 mps 746 mmHg 69%
10:00 +9°C° 0 mm 5 mps 746 mmHg 65%
11:00 +9°C° 0.1 mm 5 mps 746 mmHg 67%
12:00 +9°C° 0.1 mm 5 mps 746 mmHg 69%
13:00 +9°C° 0.1 mm 5 mps 745 mmHg 71%
14:00 +8°C° 0.2 mm 5 mps 745 mmHg 78%
15:00 +7°C° 0.2 mm 4 mps 744 mmHg 85%
16:00 +7°C° 0.2 mm 3 mps 744 mmHg 92%
17:00 +6°C° 0.6 mm 4 mps 744 mmHg 94%
18:00 +6°C° 0.6 mm 4 mps 743 mmHg 95%
19:00 +5°C° 0.6 mm 4 mps 743 mmHg 97%
20:00 +6°C° 0.4 mm 4 mps 742 mmHg 97%
21:00 +6°C° 0.4 mm 4 mps 742 mmHg 97%
22:00 +6°C° 0.4 mm 4 mps 742 mmHg 98%
23:00 +6°C° 0.5 mm 4 mps 741 mmHg 98%

9 May, Sunday

Time Temperature Precipitation Wind Pressure Humidity
00:00 +7°C° 0.5 mm 4 mps 741 mmHg 98%
01:00 +7°C° 0.5 mm 4 mps 740 mmHg 98%

10 May, Monday

Time Temperature Precipitation Wind Pressure Humidity

11 May, Tuesday

Time Temperature Precipitation Wind Pressure Humidity
Show more